Back to catalog

COSMOS 951 DEB

AlivePO
NORAD 37236·DEBRIS·🇷🇺 Russia

Launched Sep 13, 1977 from Plesetsk Cosmodrome

Loading…

Next Passes (next 24 hours)

TLE

FreshSource: Space-Track

Epoch: Sep 14, 2026, 12:27 UTC

1 37236U 77087D   26257.51910697  .00000517  00000-0  47481-3 0  9990
2 37236  82.9647  87.1653 0035086  48.6897 340.3503 13.80797652458488

Track COSMOS 951 DEB in real time with AllMySat

Download on the App Store